Theta_e
311 317 319 319 322 323 323 318 317 322 320 317 318 318 317 316 314 313 312 307 302 307 311 309 308 308 307 307 307 307 306 304 303 302 301 303 303 302 302 304 305 305 306 305 304 302 300 298 298 297 296 295 295 295 296 296 295 295 295 295 295 294 294 294 294 293 293 293 293 293 293 293 293 292 292 292 292 292 292 292 292 292 292 292 292 291
312 317 319 320 319 318 319 314 312 314 312 313 315 315 314 314 314 311 309 307 304 306 311 311 309 308 306 307 306 306 306 305 304 302 302 303 303 302 302 303 304 305 305 304 303 302 300 298 297 297 296 295 295 295 295 295 295 295 294 294 294 294 294 293 293 293 293 293 293 293 293 293 293 293 293 292 292 292 292 292 292 292 291 291 291 291
316 319 319 316 307 307 310 309 312 315 313 315 315 314 315 314 314 313 308 306 305 306 311 312 309 308 308 307 307 307 307 308 308 306 305 305 303 303 303 304 304 304 304 303 302 302 301 299 297 296 296 295 295 295 295 295 295 294 294 294 294 294 293 293 293 293 293 293 293 293 293 293 293 293 293 292 292 292 292 292 291 291 291 291 291 291
320 322 315 305 302 310 312 308 312 314 313 316 314 315 318 314 314 316 312 308 307 307 308 310 307 307 308 307 308 308 306 307 308 307 307 306 305 305 305 306 305 305 304 303 302 301 301 299 297 296 296 295 295 295 295 295 295 294 294 294 294 293 293 293 293 292 292 293 293 293 293 293 293 293 292 292 292 292 292 291 291 291 291 291 291 291
321 317 304 299 305 316 317 310 311 312 314 318 315 315 317 315 315 316 313 309 310 309 306 308 310 311 312 310 310 308 304 305 305 305 306 305 305 306 305 306 306 306 305 304 303 302 301 300 298 297 296 295 295 295 295 295 295 294 294 294 293 293 293 292 292 292 293 293 293 292 292 292 292 292 292 292 292 291 291 291 291 291 291 291 291 291
319 309 302 307 309 314 317 315 314 314 316 320 318 315 315 316 315 313 312 310 315 316 307 308 314 314 315 314 314 312 310 310 307 306 306 305 305 305 305 307 307 306 305 304 304 303 302 301 299 297 296 295 295 295 295 295 295 295 294 293 293 293 292 292 292 292 293 293 292 292 292 292 292 292 292 291 291 291 291 291 291 290 290 290 291 291
315 304 305 315 314 312 314 315 316 314 314 318 317 314 312 312 311 311 311 311 318 318 308 309 315 315 313 315 320 319 317 317 312 311 310 306 306 306 306 308 308 308 306 305 304 303 302 301 299 298 297 296 296 295 295 294 294 294 293 293 293 292 292 292 292 292 292 292 292 292 292 292 291 292 291 291 291 290 290 291 290 290 290 290 291 290
311 306 307 313 314 313 313 315 316 312 316 319 312 311 313 311 312 313 310 310 314 311 309 311 311 312 312 313 317 316 315 315 312 312 311 307 306 306 307 309 309 309 308 306 305 304 303 301 300 300 299 297 296 295 294 294 294 294 293 293 293 292 292 292 292 292 292 292 292 292 292 291 291 291 291 291 290 290 290 290 290 290 290 290 290 290
309 312 313 312 313 314 314 317 314 310 316 318 307 308 312 311 312 313 309 310 309 307 312 313 307 310 313 312 312 310 310 314 313 314 313 309 307 307 309 311 310 310 310 308 307 306 304 303 302 301 300 298 296 295 294 294 294 293 293 292 292 292 292 292 292 292 292 292 292 291 291 291 290 290 290 290 290 290 290 290 290 290 290 290 290 290
308 310 309 311 316 316 315 310 305 311 315 309 303 307 309 309 310 310 309 310 309 309 314 314 308 311 315 315 313 309 310 314 314 315 313 308 306 307 310 312 311 311 310 310 308 306 305 304 303 302 300 298 296 295 294 294 294 293 292 292 292 292 292 292 292 292 292 292 291 291 291 290 290 290 290 290 290 290 290 290 290 290 290 290 290 290
305 303 304 309 312 310 309 303 299 306 307 302 305 310 311 310 307 307 310 310 311 315 315 312 309 310 314 316 314 312 313 317 316 315 313 309 306 308 311 312 312 311 310 310 309 306 305 303 302 301 300 299 297 295 294 294 293 293 292 292 292 292 291 292 292 292 291 291 291 290 290 290 290 290 290 290 290 290 289 290 290 290 290 290 290 289
305 305 307 307 305 304 307 307 301 300 300 303 312 314 314 315 311 312 314 312 315 318 315 311 307 307 312 314 312 312 312 314 316 317 320 315 309 310 313 312 311 311 309 309 308 306 305 303 301 300 299 299 297 295 294 293 293 293 292 292 292 291 291 292 292 292 291 291 290 290 290 290 290 290 290 289 289 289 289 289 289 290 290 290 289 289
313 311 308 305 303 304 313 314 306 303 303 307 315 317 317 317 317 319 319 315 318 318 311 306 306 307 310 311 310 311 312 311 309 311 316 314 310 312 313 311 310 310 309 308 307 307 305 304 303 302 300 299 297 295 294 293 293 292 292 292 292 291 291 292 292 291 291 290 290 290 290 290 289 289 289 289 289 289 289 289 289 289 289 289 289 289
319 313 306 307 307 305 311 315 312 311 308 307 313 318 319 318 320 323 320 315 315 316 310 304 307 310 310 311 311 310 311 311 305 305 310 311 311 312 311 310 310 310 309 308 307 306 306 305 304 303 302 300 298 296 294 294 293 293 292 292 292 291 291 292 292 291 291 290 290 290 290 289 289 289 289 289 289 289 289 289 289 289 289 288 288 288
319 316 311 312 311 307 309 312 314 315 308 307 313 314 316 322 324 323 322 318 316 319 312 305 309 314 312 313 313 309 307 307 306 306 309 310 310 310 309 309 309 309 309 308 307 306 306 305 304 303 302 300 299 297 294 293 293 293 292 292 292 291 291 291 291 291 291 290 290 290 289 289 289 289 289 289 289 289 289 289 289 288 288 288 288 288
314 317 315 307 305 306 308 307 308 313 310 307 310 312 313 318 318 316 317 315 314 317 314 309 311 314 311 311 312 309 307 306 306 305 305 307 308 306 306 308 309 310 310 309 308 307 306 305 304 303 302 300 299 297 295 294 293 293 292 292 292 291 291 291 291 291 290 290 290 289 289 289 289 289 289 289 289 289 289 288 288 288 288 288 288 287
314 318 312 303 303 304 304 304 304 309 311 308 309 312 312 311 313 316 314 309 309 314 315 314 314 311 310 311 310 310 309 307 307 304 302 304 305 303 304 308 309 310 310 310 309 308 306 305 304 302 301 300 299 297 295 294 293 293 292 292 292 291 291 291 291 290 290 290 289 289 289 289 289 289 289 289 289 288 288 288 288 288 287 287 287 287
317 317 310 306 309 304 298 301 302 302 306 310 313 312 308 307 311 316 317 314 313 315 316 316 314 311 312 312 309 308 308 309 309 307 304 303 302 301 304 308 310 309 310 310 309 307 306 304 304 303 302 300 300 298 296 294 293 292 292 292 292 291 291 291 290 290 290 289 289 289 289 289 289 289 288 288 288 288 288 288 287 287 287 287 287 286
316 315 313 306 308 304 297 302 307 302 300 306 309 306 307 313 314 313 315 316 316 315 317 319 314 311 312 312 310 310 311 311 309 307 305 305 301 299 303 308 310 309 309 310 309 308 307 306 305 304 302 301 299 297 296 294 293 292 292 291 291 291 291 290 290 290 289 289 289 289 289 289 288 288 288 288 288 288 288 287 287 287 287 287 286 286
313 315 316 305 302 304 302 305 312 307 301 301 303 302 306 312 315 314 313 314 316 314 314 316 312 312 313 314 315 312 311 313 312 309 308 307 302 299 304 310 310 310 310 310 310 309 308 307 306 304 302 301 299 297 295 293 292 292 292 291 291 291 290 290 290 289 289 289 289 289 289 288 288 288 288 288 288 287 287 287 287 287 287 286 286 285
313 314 315 308 301 305 307 308 310 310 305 303 305 306 305 307 310 312 310 311 316 315 314 314 312 312 313 314 316 314 312 313 311 311 312 307 302 303 308 310 310 310 310 310 309 309 308 307 306 303 301 299 298 295 293 292 292 292 291 291 291 290 290 290 289 289 289 289 289 288 288 288 288 288 288 288 287 287 287 287 287 287 286 286 285 285
315 315 315 313 309 308 310 307 305 308 308 306 306 307 306 306 309 311 310 310 311 313 316 316 312 311 312 313 315 314 315 315 309 310 312 306 303 307 310 310 310 310 309 309 309 308 308 307 305 303 300 298 296 294 293 292 292 291 291 291 290 290 290 290 289 289 289 288 288 288 288 288 288 288 288 288 288 288 287 287 287 286 286 285 285 285
314 316 314 314 314 311 306 302 299 304 308 307 307 308 307 307 309 312 312 311 310 310 311 312 311 310 312 316 318 317 317 313 305 305 309 305 304 309 310 309 310 309 308 309 308 307 307 306 304 302 299 297 295 293 293 292 291 291 291 290 290 290 290 289 289 289 288 288 288 288 288 288 288 288 288 288 288 288 287 287 286 286 285 285 285 284
311 315 313 312 315 310 303 300 300 302 306 308 308 307 306 306 307 310 311 310 312 311 310 310 310 310 311 316 320 318 313 305 300 301 304 303 304 308 309 309 309 308 308 308 307 306 306 304 302 300 298 297 294 293 292 292 291 291 290 290 290 290 289 289 289 289 288 288 288 288 288 288 288 288 288 288 288 287 287 286 286 285 285 284 284 283
312 315 314 313 315 313 308 305 305 305 306 308 310 307 306 306 307 309 308 307 310 310 309 311 311 309 310 313 314 312 308 305 302 301 301 301 304 307 308 308 307 307 307 307 306 305 304 303 302 300 299 297 294 293 292 292 291 290 290 290 290 289 289 289 288 288 288 288 288 288 288 288 288 288 288 288 288 287 287 286 285 285 284 284 283 282
313 316 313 312 314 313 312 310 311 311 307 306 309 308 306 306 306 308 308 308 308 309 308 310 310 310 310 311 310 309 308 307 303 299 299 301 303 304 305 306 306 306 306 306 305 305 303 302 301 300 298 296 294 293 292 291 291 290 290 290 289 289 288 288 288 288 288 288 288 288 288 287 288 288 288 288 288 287 286 285 284 284 283 283 282 282
316 316 312 312 313 311 311 310 312 315 311 309 310 308 306 306 305 307 309 309 309 308 308 309 309 310 310 309 309 309 308 308 307 304 301 301 302 304 304 305 305 304 304 304 304 303 302 301 300 298 296 295 293 292 292 291 290 290 290 289 289 289 288 288 288 288 288 288 288 287 288 287 288 288 288 288 287 286 285 284 283 283 282 282 282 282
316 314 310 312 312 310 311 310 311 312 312 311 311 309 307 306 305 307 308 308 309 309 309 309 308 309 309 308 309 309 308 308 309 308 306 304 305 306 305 305 304 303 303 303 302 301 301 301 299 297 295 294 293 292 291 290 290 290 290 289 289 288 288 288 288 288 288 287 287 288 287 287 288 288 288 287 286 285 284 283 283 282 282 282 281 282
312 312 311 312 311 310 310 309 310 310 309 309 310 310 308 306 305 306 307 307 308 309 309 309 309 309 309 308 308 308 308 308 308 307 307 307 307 306 306 305 302 302 303 302 302 302 301 300 299 297 295 294 292 291 291 290 290 290 289 289 288 288 288 288 288 288 287 287 287 287 287 288 288 288 287 286 285 284 283 282 282 281 281 281 281 281
309 310 311 310 310 310 310 309 309 308 308 308 308 308 308 307 306 306 306 306 307 307 308 308 309 308 308 308 308 308 308 308 307 307 307 307 307 306 306 304 302 302 302 302 302 302 301 300 299 297 295 293 292 291 291 290 290 290 289 288 288 288 288 288 288 287 287 287 287 287 287 288 288 287 287 285 284 283 282 282 281 281 281 281 281 281
306 310 311 310 310 311 310 310 309 309 308 308 308 308 308 307 306 306 305 306 306 306 306 306 307 307 307 307 308 307 307 306 306 307 307 307 307 307 306 305 303 302 302 302 303 302 301 299 297 296 295 294 293 292 291 290 290 289 289 288 288 288 288 288 288 287 287 287 287 287 288 288 288 287 286 284 283 282 282 281 281 281 281 280 281 281
307 309 310 310 310 311 310 310 311 310 309 308 308 309 308 308 308 307 307 307 307 307 306 306 306 306 306 307 307 307 307 307 307 306 306 306 307 306 306 306 305 304 303 304 303 301 300 299 297 296 295 294 293 291 291 290 290 289 289 288 288 288 288 287 287 287 287 287 287 288 288 288 287 286 285 284 283 282 281 281 281 280 280 280 281 281
308 309 309 309 310 310 310 311 311 311 310 309 310 310 309 309 309 309 309 309 308 308 308 308 308 307 307 308 308 308 308 308 307 306 306 306 306 306 306 306 306 305 305 305 303 302 301 300 299 298 297 295 293 292 291 290 290 289 289 288 288 288 287 287 287 287 287 287 288 288 288 288 287 285 284 283 282 282 281 281 280 280 280 280 280 280
308 308 309 309 309 310 310 310 310 311 310 311 311 311 310 310 309 309 309 309 309 308 308 308 308 308 308 308 308 308 308 308 308 307 307 307 307 307 307 307 306 307 306 306 304 303 302 301 300 298 296 295 294 292 291 290 289 289 288 288 288 287 287 287 287 287 287 287 288 288 288 287 286 284 283 283 282 282 281 280 280 279 280 280 280 280
307 307 307 308 309 309 309 309 310 311 311 310 311 312 310 309 310 309 309 309 308 308 308 308 308 308 308 308 308 308 307 307 308 308 308 307 307 307 307 306 306 306 306 305 304 304 303 301 299 297 295 294 293 291 290 289 289 288 287 287 287 287 287 287 287 287 287 288 288 288 287 286 285 284 283 283 282 281 280 280 279 279 279 280 280 280
307 307 307 308 308 308 308 309 310 311 310 309 310 309 308 308 309 308 308 309 308 308 308 308 308 308 308 308 307 307 307 307 307 307 307 307 307 307 307 307 307 306 306 306 305 304 304 302 301 299 297 295 292 290 289 289 288 287 287 287 287 287 287 287 287 287 287 288 288 287 286 285 284 284 283 283 281 280 280 279 279 279 279 279 279 279
307 308 308 308 309 309 308 309 310 310 310 310 309 308 308 309 308 308 308 308 308 307 308 307 307 308 307 307 307 307 307 307 306 307 307 307 307 307 307 307 307 306 306 305 304 303 303 303 301 299 297 295 292 290 289 289 288 287 287 287 287 287 287 287 287 287 288 288 288 287 286 284 284 284 283 282 281 280 279 279 279 279 279 279 279 279
306 308 308 308 309 310 309 309 310 310 310 310 309 309 309 308 308 309 309 308 308 308 308 308 308 308 308 308 307 306 306 308 307 307 308 308 307 307 307 307 306 306 305 304 303 302 301 300 299 298 296 294 291 289 289 288 287 287 287 287 287 287 287 287 287 288 288 288 287 286 285 284 284 284 282 281 280 279 279 278 278 278 278 278 278 278
306 306 307 309 309 309 310 310 310 310 311 309 309 310 308 305 307 310 309 309 309 308 308 308 309 308 309 308 307 307 308 309 308 308 308 308 307 306 306 306 305 305 305 303 302 302 301 299 298 296 294 292 290 289 288 288 287 287 287 287 287 287 287 287 288 288 288 287 286 285 284 284 284 283 282 280 279 279 278 278 278 278 277 277 277 278
307 306 306 308 308 309 310 310 310 310 310 310 310 309 304 302 307 312 310 310 311 310 308 308 309 309 308 307 307 309 309 308 309 309 307 306 306 306 306 306 306 305 304 303 301 300 300 299 297 295 293 291 290 289 288 287 287 287 287 287 287 287 287 287 288 288 287 286 285 284 284 284 283 282 281 279 279 278 278 278 277 277 277 277 277 277
307 307 307 307 307 308 309 309 310 309 310 311 310 305 302 304 310 312 311 311 311 310 308 307 308 308 307 306 306 307 308 308 309 309 307 305 305 305 305 305 305 304 303 302 301 300 299 298 297 295 293 290 289 288 288 287 287 287 287 287 287 287 287 288 288 287 287 285 284 283 283 283 282 281 280 279 278 278 277 277 277 276 276 276 276 276
307 307 307 307 307 308 308 309 310 309 310 310 307 302 303 308 311 310 310 310 310 309 306 306 307 306 306 305 305 306 308 309 309 308 307 306 305 304 303 304 304 304 302 300 298 298 297 295 294 293 291 289 288 288 288 287 287 287 287 287 287 287 287 288 287 287 286 284 283 283 283 283 281 280 279 278 278 277 277 277 276 276 275 275 276 276
309 308 308 307 308 308 308 309 310 310 311 309 306 303 305 309 310 310 309 309 309 308 307 306 306 307 307 306 306 307 309 309 309 308 308 308 306 303 302 302 303 303 302 301 299 297 296 294 292 291 289 288 288 287 287 287 287 287 287 287 287 287 288 287 287 286 285 283 283 283 282 282 280 279 278 277 277 277 277 276 276 275 275 275 275 276
310 310 310 309 309 309 309 309 310 310 310 308 307 306 307 308 309 309 309 309 309 309 308 307 307 307 307 306 307 308 308 308 308 308 308 309 307 304 303 302 301 301 301 300 299 297 296 294 292 290 289 288 287 287 287 287 286 287 287 287 287 287 287 287 287 285 283 282 282 282 282 281 279 278 278 277 277 277 276 276 275 275 274 274 275 275
311 311 312 311 310 310 311 310 309 309 308 307 307 308 308 307 308 309 309 308 309 309 309 308 308 307 306 307 307 307 307 307 308 308 309 310 309 307 304 303 302 301 299 298 297 296 295 293 292 290 288 287 286 286 286 286 286 287 287 287 287 287 287 287 286 284 283 282 282 282 281 279 278 278 277 277 276 276 276 275 275 274 274 274 274 274
311 311 311 311 311 310 310 310 310 309 308 307 307 308 308 308 307 307 307 307 308 309 309 309 308 308 307 307 307 306 307 307 307 308 309 308 307 305 303 301 300 298 297 296 294 293 292 291 290 289 288 286 286 286 286 286 286 286 287 287 287 287 287 286 285 283 282 282 282 281 280 279 278 277 276 276 276 276 275 275 274 274 274 274 274 274
311 311 311 311 311 312 312 312 311 311 309 307 306 306 307 308 308 307 307 307 307 308 308 308 308 308 308 307 306 306 307 307 307 307 307 306 305 303 302 300 299 298 297 296 295 293 291 290 289 288 287 287 286 286 286 286 286 286 287 287 287 287 287 286 284 282 281 281 281 281 279 278 277 276 276 276 275 275 275 275 274 274 274 273 273 273
311 311 311 311 311 311 311 311 311 310 309 308 307 306 306 306 307 307 307 307 307 307 307 307 307 307 306 307 307 307 307 307 307 306 306 305 304 303 300 299 299 297 296 295 293 292 291 289 288 288 287 287 286 286 286 286 286 286 287 287 287 287 286 285 283 282 281 281 281 280 279 278 277 276 276 275 275 274 274 274 274 274 273 273 273 273
310 310 311 311 311 311 311 311 311 310 309 308 308 307 306 307 307 307 307 307 306 306 306 306 306 306 306 306 307 306 305 306 306 306 305 305 304 302 300 299 298 297 296 294 292 291 291 290 288 288 287 287 286 286 286 286 286 287 287 287 287 287 286 284 282 281 281 280 280 280 278 277 276 276 275 275 274 274 273 274 274 273 273 272 272 272
309 310 311 311 311 311 311 311 310 310 310 309 309 308 308 308 307 307 307 306 306 306 307 306 306 306 305 305 306 305 304 305 305 305 304 304 304 303 301 299 296 295 294 293 291 290 289 289 288 288 287 287 286 286 286 286 287 287 287 287 287 286 285 283 281 281 280 280 280 279 278 277 276 275 275 274 274 273 273 273 272 272 272 272 272 271
311 311 311 311 311 311 311 311 310 310 310 310 310 310 310 309 308 307 307 307 307 307 307 307 306 306 305 305 305 304 303 304 305 304 303 303 303 302 301 299 297 295 293 292 290 288 287 287 287 287 287 287 286 286 286 286 287 287 287 287 286 285 284 282 281 280 280 280 279 279 277 276 275 274 274 274 273 273 273 272 272 272 271 272 271 271
Wind_Speed
2 1 4 6 7 8 8 8 6 4 5 4 4 4 5 5 6 5 3 3 1 1 9 10 9 12 16 17 20 22 17 20 28 26 26 31 31 31 32 36 39 42 43 42 43 44 44 43 42 40 38 36 35 32 31 29 27 25 23 21 18 16 13 11 9 7 6 5 6 7 8 10 12 13 14 16 17 18 19 20 21 22 23 24 25 27
3 4 8 9 8 6 5 6 6 5 5 4 4 4 4 4 7 6 2 4 2 2 6 7 7 12 17 16 19 19 12 20 27 22 26 33 31 30 32 36 39 39 40 40 42 44 44 45 43 41 40 39 38 36 34 31 28 26 24 21 19 16 14 12 10 8 7 6 6 7 8 10 12 13 14 15 17 18 19 21 22 23 24 25 26 28
1 6 10 7 6 6 5 5 6 6 5 3 3 2 4 3 5 6 3 4 2 2 5 6 8 15 18 17 21 19 16 28 33 24 30 34 29 30 33 36 37 37 39 40 42 43 44 46 45 44 43 42 40 37 35 32 29 27 25 22 20 17 15 13 11 9 8 7 7 8 10 11 12 14 15 16 17 18 19 20 22 23 24 25 27 29
2 7 7 6 10 8 5 4 6 5 3 2 3 2 5 3 1 4 3 4 2 2 4 7 10 14 15 15 18 17 18 29 35 29 33 34 29 32 34 34 35 36 39 40 41 42 44 46 47 47 46 44 42 39 37 34 31 29 25 22 20 18 16 14 12 10 9 8 8 9 11 12 13 14 16 16 17 18 19 20 21 22 24 26 27 29
7 6 4 8 6 7 6 3 5 5 2 3 5 6 6 4 5 6 3 4 3 2 2 6 10 10 7 9 10 7 6 16 24 25 29 32 30 32 31 32 34 35 37 38 39 41 43 47 50 50 49 46 44 42 40 37 34 30 26 23 21 19 17 15 13 11 10 9 9 10 12 13 14 15 17 17 18 19 20 21 21 23 25 26 28 30
9 5 9 7 2 5 6 4 5 7 3 4 6 10 9 6 7 5 3 4 3 3 2 4 7 7 1 3 7 4 3 7 9 12 20 25 24 26 28 30 32 33 34 36 37 38 41 45 49 50 49 48 47 46 42 38 34 29 26 24 22 20 18 15 13 11 10 10 10 11 12 14 15 16 18 19 20 21 22 23 23 24 25 28 29 31
3 2 6 6 5 5 5 5 6 7 4 3 4 7 7 5 4 3 1 2 0 2 3 3 2 8 2 1 7 5 4 9 8 9 19 22 19 22 27 28 29 30 31 33 34 36 39 42 47 50 51 51 50 47 42 38 34 30 27 25 23 21 18 16 14 12 11 11 11 12 13 15 16 17 18 20 21 22 23 24 24 25 25 27 29 31
2 4 3 4 6 5 5 6 6 9 7 3 3 4 6 6 5 5 3 1 3 1 4 0 2 8 8 5 7 5 5 11 12 13 18 21 20 21 25 26 24 24 25 27 30 34 37 40 44 48 51 52 51 47 43 39 35 31 29 26 24 22 19 17 14 13 12 12 12 13 14 16 17 19 19 20 22 23 24 25 25 26 26 27 29 30
3 5 5 6 5 4 6 5 7 11 5 4 3 6 6 5 5 4 4 3 2 3 4 4 4 5 10 5 2 2 4 10 14 15 15 17 19 20 21 20 17 17 19 22 26 30 33 36 39 43 47 50 50 48 44 41 36 32 29 27 25 23 20 17 15 13 13 13 13 14 15 16 17 19 20 21 23 24 25 26 26 27 28 29 29 31
2 4 6 8 6 6 5 1 4 7 3 3 6 6 5 4 4 3 3 2 1 1 7 7 7 5 10 4 3 2 3 9 12 12 12 15 19 19 17 14 12 13 16 19 23 26 29 32 34 38 43 48 49 48 44 40 37 33 31 29 26 23 21 18 16 14 13 13 13 14 15 16 17 19 21 22 23 24 26 27 28 28 30 31 31 32
1 2 2 4 5 5 6 3 2 2 4 8 7 4 4 4 4 3 1 2 1 4 8 8 12 10 8 3 5 4 5 9 9 8 9 12 18 20 16 12 11 12 14 16 20 23 26 29 31 35 41 45 48 48 45 41 38 35 33 30 27 24 21 19 16 15 14 14 14 14 16 17 18 20 21 22 23 24 26 27 28 29 31 32 33 33
1 2 2 3 6 8 8 5 4 4 5 6 4 3 3 4 3 4 3 3 1 6 4 3 8 9 10 6 4 6 7 7 9 8 8 9 16 20 16 13 11 13 14 16 18 21 24 27 31 35 39 44 47 48 47 44 40 37 35 32 28 25 22 20 17 15 15 14 14 15 16 18 19 20 22 23 24 25 26 28 29 30 32 33 34 34
1 4 2 2 5 7 6 5 3 3 2 4 3 4 2 4 3 4 3 1 3 7 2 2 3 5 12 11 7 9 10 10 10 11 11 11 15 18 16 13 13 14 16 17 18 20 23 26 30 33 37 42 46 49 50 46 42 40 37 33 29 26 23 20 18 16 15 14 14 15 16 18 19 20 22 23 24 26 27 29 30 32 34 35 35 36
3 4 2 3 3 8 9 6 3 2 3 6 5 4 3 1 0 3 4 2 5 7 3 3 3 4 9 9 12 17 18 17 16 19 20 17 18 18 16 16 17 18 19 19 19 20 22 25 28 31 34 39 44 49 51 48 45 42 38 34 30 27 24 21 19 16 15 14 14 15 16 18 19 20 21 23 25 26 28 29 31 33 35 36 37 38
4 6 5 6 3 10 12 7 6 6 5 5 4 5 5 5 4 5 4 4 7 6 4 1 2 4 5 4 8 14 16 17 20 25 24 21 23 21 20 21 22 22 22 21 22 22 23 24 26 29 33 37 41 47 51 50 46 43 39 35 31 27 25 21 19 17 15 14 15 16 17 18 19 20 21 23 24 26 28 29 31 33 35 37 38 39
3 8 6 3 2 11 10 5 7 8 3 3 3 4 3 5 5 3 3 4 1 4 5 3 4 6 4 3 4 6 7 9 16 21 20 24 27 23 22 25 26 26 25 24 24 24 23 24 26 29 32 35 40 46 51 51 48 45 41 36 31 28 25 21 19 16 14 14 15 16 17 18 19 20 22 23 24 26 28 29 32 33 35 37 39 40
2 5 2 2 1 6 6 4 5 3 3 3 2 4 3 3 6 3 2 1 4 3 6 2 5 10 7 5 6 6 5 6 10 11 13 22 24 18 21 27 28 28 26 25 25 24 24 24 26 29 31 35 39 45 51 52 49 45 41 36 32 29 25 21 18 16 15 15 15 16 17 18 19 20 22 23 25 26 27 29 32 34 35 37 40 42
4 4 3 3 3 3 2 3 3 2 3 6 4 5 3 2 4 3 2 3 2 5 5 5 11 16 12 7 2 3 4 8 11 9 10 17 17 15 24 30 30 30 26 24 24 23 23 24 26 28 31 34 38 43 49 51 48 43 39 35 32 29 25 21 18 17 16 15 15 16 17 18 19 20 22 24 25 26 28 30 32 34 36 38 41 42
4 3 5 2 1 0 2 2 2 3 2 4 4 2 4 3 2 2 2 2 3 4 4 10 16 17 13 9 6 5 8 10 11 10 11 12 12 17 26 30 30 29 26 24 24 23 23 23 25 28 30 33 37 43 48 49 46 42 39 36 32 28 24 20 19 17 16 16 15 16 17 18 19 20 22 24 25 26 28 31 33 35 38 40 41 43
3 3 4 1 2 1 2 1 5 3 1 2 0 0 2 2 4 3 3 3 3 4 5 11 14 15 10 7 8 11 11 11 10 10 10 11 15 22 27 28 28 27 25 24 24 23 23 24 26 29 31 33 37 43 47 47 45 43 40 37 32 27 23 21 19 17 16 16 16 16 17 18 19 21 22 23 25 27 29 32 34 37 39 41 42 43
3 3 5 1 3 1 3 6 8 8 6 4 3 3 2 1 2 1 1 2 3 4 4 6 10 17 9 6 8 9 9 11 11 11 10 11 18 24 26 27 26 25 24 24 23 22 23 26 28 30 32 35 38 43 46 47 45 43 40 36 31 26 23 21 19 17 17 16 16 16 17 18 19 21 22 23 25 28 31 33 36 38 40 41 42 43
3 3 5 2 2 5 7 5 2 4 8 9 7 8 8 6 4 1 5 2 2 4 5 5 8 18 9 6 6 7 8 9 11 11 9 12 20 25 25 26 25 24 24 22 22 23 24 27 29 31 34 37 40 43 46 47 45 43 40 35 30 26 23 21 19 17 16 16 16 16 17 18 19 21 22 24 26 29 32 34 36 38 40 42 42 42
3 2 3 5 6 6 5 2 1 3 5 5 4 6 7 6 7 6 8 5 2 2 3 3 4 17 11 6 6 6 8 10 13 14 10 13 21 23 23 24 24 24 24 22 23 25 26 28 30 32 35 37 41 45 47 48 46 43 39 33 29 26 23 21 19 17 17 16 16 16 17 18 19 21 23 25 28 30 33 35 37 39 40 42 42 41
3 2 3 6 6 3 3 4 3 3 3 3 5 4 6 8 9 8 6 3 3 5 4 3 4 18 13 4 6 5 6 9 13 15 13 14 19 22 22 23 24 24 24 24 26 27 28 30 31 33 36 38 42 46 48 48 46 42 37 32 29 26 23 21 19 17 17 16 15 16 17 18 19 21 23 26 29 32 34 36 38 39 40 40 40 39
6 3 4 4 6 5 3 2 3 4 1 4 4 5 8 11 8 3 1 1 4 8 8 5 8 18 11 3 5 4 5 5 8 13 16 15 17 21 22 22 24 25 26 27 28 28 29 31 32 34 37 40 44 48 49 49 46 42 37 32 28 25 23 21 19 17 16 15 15 15 16 18 20 22 25 28 31 33 35 37 38 38 38 38 38 38
9 4 7 7 8 10 11 8 4 1 2 3 2 6 11 15 13 7 2 5 10 7 8 7 15 20 15 9 9 9 6 5 7 11 15 17 19 21 22 24 27 28 29 30 29 30 31 31 32 34 37 41 45 49 50 49 45 41 35 31 28 25 23 20 19 17 16 15 15 15 16 18 20 23 27 30 32 34 36 37 37 36 36 36 36 37
4 2 10 13 14 14 14 13 6 6 4 5 6 9 12 15 16 11 7 11 10 3 5 15 23 22 20 22 25 21 11 8 10 10 12 17 21 23 26 30 30 30 31 30 30 30 31 31 33 35 37 41 46 49 50 48 45 40 34 31 28 25 23 21 19 17 16 15 15 15 16 19 22 25 29 31 33 35 36 35 35 34 34 34 35 36
2 4 12 16 19 17 18 20 9 7 7 9 8 11 14 14 15 14 16 17 8 4 11 23 22 17 20 26 32 30 19 11 13 14 14 19 24 26 28 30 29 30 30 30 30 31 31 32 34 35 38 42 46 49 49 47 43 38 34 30 28 25 23 21 19 17 16 15 15 16 17 20 23 26 30 32 34 34 34 33 33 32 32 33 34 36
3 7 12 14 18 18 19 22 11 7 8 8 8 13 16 15 16 19 24 23 14 12 19 22 17 15 21 29 33 29 18 10 14 21 23 25 26 24 25 27 26 27 29 30 31 32 32 34 34 36 39 42 47 49 49 46 42 38 34 31 28 26 23 21 19 17 16 15 15 16 18 21 24 27 30 32 33 33 32 31 31 31 32 32 34 35
4 6 10 11 13 14 17 20 11 6 9 11 11 14 19 20 17 20 27 28 22 21 20 19 19 19 25 31 29 25 22 17 20 29 32 31 30 28 29 29 27 28 30 31 32 32 33 34 34 36 39 43 47 50 50 48 44 39 35 32 29 26 23 21 19 16 15 15 14 16 19 22 25 28 31 31 31 31 30 30 30 30 31 32 33 34
4 7 8 7 8 12 17 19 11 8 12 15 15 20 26 24 18 20 26 24 19 18 17 17 18 20 27 29 21 22 28 24 22 29 35 38 36 33 33 32 29 30 32 32 33 34 33 34 35 36 40 43 48 50 51 49 45 39 35 32 29 26 23 20 18 16 15 14 15 17 19 22 26 28 30 30 30 29 29 29 30 30 31 32 32 33
4 5 4 4 7 12 16 16 10 8 8 10 16 27 31 24 19 23 23 16 13 16 17 16 15 18 25 22 14 16 20 18 19 24 29 36 37 31 32 35 33 32 33 35 36 34 33 34 36 37 40 44 48 51 52 50 45 40 36 33 29 26 23 20 18 16 14 14 15 17 19 23 26 28 28 28 28 28 28 28 29 30 31 31 32 33
4 4 4 6 8 12 16 13 5 4 3 9 15 21 23 22 23 26 21 14 14 14 14 15 16 20 22 17 14 15 13 12 18 24 28 33 32 29 34 38 36 33 35 37 36 35 34 35 36 37 40 44 47 51 53 49 45 40 36 32 28 25 22 20 17 15 14 13 15 17 20 24 26 26 27 26 27 27 27 28 28 29 31 31 32 33
6 8 8 7 8 12 11 5 5 5 10 14 8 6 13 20 24 24 20 17 16 14 15 18 20 23 24 19 17 17 16 21 29 37 41 35 27 31 40 40 35 35 38 37 34 34 34 34 35 37 40 43 46 50 51 46 41 38 34 31 28 25 22 19 16 14 13 13 15 17 21 24 24 25 25 25 26 26 26 27 28 29 30 31 31 33
8 10 9 7 7 7 3 5 4 9 14 10 5 7 14 16 15 14 14 16 17 17 20 23 24 27 27 23 21 21 26 36 43 49 48 35 28 38 44 39 37 38 38 36 34 34 34 33 35 38 40 43 47 49 49 45 40 37 34 31 27 24 21 18 15 13 13 13 16 18 21 23 23 23 25 24 25 25 25 27 28 28 30 30 31 33
12 10 7 6 6 2 3 7 10 9 6 8 12 16 15 9 7 9 13 15 16 18 20 20 23 28 27 23 26 31 35 38 40 46 46 35 33 43 43 41 43 42 39 39 37 34 33 33 35 37 39 43 47 49 48 45 41 37 33 30 26 23 20 17 14 13 12 13 16 19 20 21 21 22 24 24 24 24 24 26 27 28 30 30 31 32
14 11 7 7 8 5 6 10 9 7 8 11 18 21 14 9 10 10 11 14 16 19 20 17 21 28 25 21 29 35 31 22 18 30 43 40 36 41 42 41 42 39 37 37 34 31 31 31 33 36 39 42 46 49 48 44 40 36 32 29 26 22 19 16 13 12 12 14 17 18 19 20 20 21 22 22 23 23 24 26 27 27 29 30 31 32
16 14 11 9 8 8 9 9 7 8 9 13 23 24 11 9 11 10 7 10 18 23 21 17 22 27 21 21 27 22 13 9 6 17 38 40 31 31 33 32 31 29 28 29 28 28 29 31 34 36 38 41 45 48 47 43 39 36 32 28 25 21 18 15 12 11 12 15 16 17 17 19 20 20 20 21 22 23 24 25 26 27 28 30 31 33
18 13 12 11 7 7 10 9 8 10 10 13 24 22 8 11 10 6 2 10 21 25 21 17 21 24 18 20 21 8 2 6 7 14 32 35 24 23 26 25 24 22 21 23 24 26 29 31 33 35 37 41 46 49 46 41 38 35 31 28 24 20 16 13 11 11 13 15 15 15 16 17 19 19 19 19 20 22 24 25 25 26 27 28 30 32
15 10 10 12 10 12 13 10 8 8 7 12 20 15 8 15 12 7 1 14 20 19 18 17 18 21 20 18 15 6 6 9 11 17 28 26 19 20 21 19 20 20 19 21 23 24 27 30 33 36 39 43 48 48 45 41 37 34 30 26 23 19 15 12 10 11 13 14 14 14 15 16 17 18 18 19 20 21 23 25 25 26 27 27 29 31
9 9 10 11 13 16 15 12 10 7 7 13 15 8 15 15 8 2 11 20 15 9 17 20 19 23 24 17 10 9 14 23 27 28 28 23 19 20 17 16 17 17 17 20 22 24 27 29 32 35 39 44 48 48 44 41 37 33 29 25 21 17 13 10 10 11 13 12 12 13 14 15 15 16 17 18 19 20 22 24 25 26 27 28 29 31
5 6 8 9 11 12 12 13 11 6 8 13 10 15 18 9 3 11 21 25 19 9 16 22 22 25 26 21 19 22 28 33 35 33 31 29 27 24 20 19 20 20 19 20 21 24 28 31 33 36 41 46 49 46 43 40 36 32 29 24 20 16 12 10 11 12 11 10 11 11 13 14 15 15 16 17 19 20 21 22 24 25 26 27 28 30
9 7 6 7 9 9 8 10 9 6 12 18 13 11 10 10 15 19 20 24 28 24 19 21 24 27 26 25 28 34 35 35 34 32 31 32 32 29 26 24 23 23 24 24 25 27 31 34 37 41 45 48 48 45 42 39 35 31 27 23 19 15 11 11 11 11 9 9 10 10 11 13 14 14 15 16 18 19 21 22 23 24 26 27 28 30
10 9 6 6 8 7 7 10 10 9 14 23 20 10 15 29 37 34 22 19 29 33 25 21 28 33 31 29 33 37 37 37 36 34 32 33 34 34 31 28 27 26 26 27 28 29 32 35 39 44 48 49 47 44 40 37 34 30 26 21 17 14 12 11 10 9 8 7 8 9 11 12 12 13 14 16 17 19 20 21 22 23 25 26 28 30
11 13 12 10 9 11 12 13 11 11 15 26 31 28 33 45 53 51 39 27 28 35 32 26 30 35 34 34 35 36 37 39 39 37 36 36 38 38 36 33 32 30 29 30 31 32 34 37 41 47 51 49 46 42 39 35 31 28 24 20 16 13 12 11 9 7 7 6 7 8 10 11 11 12 13 15 17 18 19 20 22 24 25 26 27 29
15 17 16 13 11 14 17 13 9 11 16 25 36 42 43 43 48 52 49 38 35 42 39 30 30 34 34 35 36 35 38 42 41 40 40 39 38 38 37 35 32 31 31 33 34 36 38 40 45 50 52 50 45 42 38 34 30 25 22 19 15 13 12 10 7 6 6 6 6 8 10 11 10 11 12 13 15 17 18 20 22 24 25 27 28 29
15 18 16 13 13 14 15 13 14 18 21 24 31 37 40 43 44 46 46 44 46 50 44 35 35 36 31 32 35 38 42 44 41 41 41 39 39 40 39 37 36 35 35 36 38 40 43 46 49 52 52 49 45 42 38 34 30 26 21 18 16 14 11 9 7 7 6 5 6 8 10 10 8 9 11 12 13 15 16 18 20 23 25 27 28 29
11 16 16 15 16 16 15 15 16 21 27 30 31 31 34 43 47 46 47 48 48 48 43 39 40 37 33 34 38 41 43 43 41 41 41 40 42 42 40 40 39 38 38 38 40 43 46 49 52 53 51 48 45 41 38 33 29 26 22 19 16 14 11 9 7 7 6 5 7 9 10 9 7 7 9 10 12 14 16 17 17 20 23 25 27 29
3 7 9 10 13 15 16 15 14 16 19 24 30 33 37 44 47 47 47 46 44 43 43 41 41 41 42 44 44 43 42 42 42 43 42 42 43 43 42 42 42 42 41 42 43 46 48 51 53 53 50 47 44 41 37 33 28 25 22 19 17 14 11 9 8 7 6 6 7 9 10 8 7 7 8 8 10 12 16 19 20 20 20 21 23 24
7 7 6 7 10 11 11 12 15 15 13 17 28 39 43 44 44 43 43 42 42 45 48 47 47 47 46 46 47 45 42 44 46 45 44 45 46 46 46 45 44 44 44 44 46 48 50 52 53 51 49 46 43 40 36 32 29 25 23 20 17 14 11 10 8 8 7 7 8 9 9 7 6 7 8 8 8 9 11 14 18 21 21 21 20 20
12 11 8 10 13 14 13 15 17 15 13 21 34 43 44 44 43 42 45 47 48 50 51 51 51 49 48 50 52 49 46 49 50 47 45 47 48 47 47 46 46 47 48 48 49 51 53 53 52 50 48 46 42 39 36 32 29 26 23 20 17 14 12 10 9 8 7 7 8 9 8 6 6 7 8 8 9 10 9 9 10 14 18 20 21 20
Wind_Direction
101 221 229 221 217 213 215 199 189 172 137 134 148 183 226 240 267 261 243 290 46 217 260 251 247 259 261 263 268 270 264 250 252 253 249 249 246 241 237 239 239 240 244 241 233 228 225 225 225 224 223 221 220 220 222 224 226 228 230 231 231 231 231 229 233 238 249 268 291 304 314 318 320 325 328 329 329 329 325 322 321 319 320 321 323 324
91 213 236 225 214 204 195 170 133 115 104 104 149 205 255 232 257 270 281 318 359 170 264 280 278 266 261 263 265 262 257 253 251 245 248 250 247 242 240 243 244 245 245 241 235 230 225 225 225 224 223 222 221 221 222 224 225 228 229 230 229 228 229 229 232 239 250 267 285 298 309 318 321 324 329 329 327 326 323 320 318 318 320 322 324 324
57 241 247 214 162 108 91 114 112 112 110 101 136 178 263 242 271 297 341 347 3 183 270 296 288 272 265 264 263 252 238 254 259 251 252 253 246 243 243 245 246 245 243 239 237 232 227 225 224 224 224 223 224 223 224 225 225 227 228 227 227 227 228 229 234 240 251 268 283 297 307 317 321 323 327 327 323 321 320 318 317 318 321 323 324 323
212 257 254 174 143 111 85 88 99 101 116 148 151 176 251 247 290 288 310 325 278 219 276 288 277 269 265 258 262 259 242 253 263 260 259 256 248 246 249 251 250 247 244 240 237 234 228 224 223 224 224 224 223 223 223 224 224 226 227 227 228 228 228 230 236 242 254 269 285 298 307 315 321 323 322 322 320 318 317 316 316 318 320 322 322 322
229 242 152 132 134 119 115 127 135 150 235 246 196 206 238 231 221 238 282 322 307 312 316 306 290 275 261 250 258 280 259 255 261 261 259 253 248 249 251 253 253 250 248 243 239 235 230 225 224 224 224 224 224 223 223 224 225 226 227 228 228 227 229 232 236 244 257 272 287 299 307 313 318 320 318 317 318 317 317 318 319 321 321 321 323 321
251 213 144 133 108 117 138 196 193 177 212 293 229 215 222 224 232 250 324 353 356 333 330 0 318 291 301 249 261 293 318 274 263 260 261 255 246 243 243 248 251 251 250 246 244 241 235 229 225 223 223 224 225 226 225 224 225 227 227 227 228 228 229 233 238 247 260 274 287 298 305 310 314 317 318 317 318 319 319 320 322 322 322 322 323 320
252 164 141 147 155 154 175 233 225 172 154 294 247 205 200 199 212 230 2 11 257 254 300 49 310 276 276 210 258 266 275 276 275 273 271 265 251 239 242 249 252 252 251 247 245 243 238 231 225 223 225 226 227 226 224 223 225 225 225 226 228 229 230 234 241 250 262 275 287 296 303 308 311 314 317 317 317 318 318 320 321 320 322 322 320 317
136 108 85 113 133 154 191 240 222 158 140 241 237 130 137 154 178 193 144 174 230 272 318 316 188 273 274 234 249 253 258 276 275 272 274 270 258 244 248 253 253 254 254 250 247 243 238 233 228 228 228 228 228 226 223 222 224 223 224 227 228 228 230 235 243 252 263 276 286 294 301 307 309 311 316 316 315 317 318 319 319 319 321 320 317 315
119 152 176 144 127 172 202 237 199 160 155 239 186 115 125 142 152 155 134 189 261 34 303 251 160 273 274 237 266 315 242 260 263 258 262 266 260 251 251 253 251 256 259 258 255 248 243 238 235 234 231 229 227 225 223 223 223 223 224 226 227 228 231 235 244 254 265 275 284 292 299 304 308 310 313 316 316 317 317 318 319 320 322 320 317 315
91 170 190 150 147 205 206 254 187 175 195 174 130 96 76 72 80 85 122 157 28 355 262 239 167 230 274 221 127 69 205 236 250 253 255 259 260 256 249 244 245 257 262 262 260 254 248 245 242 236 231 229 228 225 223 223 222 223 224 225 227 229 231 236 244 254 265 274 282 290 296 301 305 308 311 314 316 316 316 318 320 321 322 319 317 315
76 95 192 164 171 175 141 84 58 114 135 127 110 71 47 37 52 48 65 97 24 264 259 234 180 194 270 247 164 185 202 208 218 239 255 259 259 254 241 233 245 262 266 263 259 254 249 246 241 235 231 230 227 223 221 221 221 221 223 225 227 228 230 236 244 252 262 271 280 288 294 300 305 307 310 312 314 315 316 318 319 320 319 317 316 315
37 121 242 208 166 131 105 70 39 62 108 114 96 72 25 336 13 17 355 54 272 254 261 241 178 189 244 250 202 229 245 218 200 213 230 241 250 244 230 228 250 268 269 263 257 252 246 241 236 232 231 229 225 221 219 219 219 220 222 224 226 227 230 236 243 250 259 268 278 287 293 299 303 307 309 312 314 315 316 317 318 318 316 314 314 313
277 215 218 163 172 160 122 79 31 12 69 107 102 90 40 318 347 342 305 120 233 254 252 143 144 219 246 246 232 243 254 237 215 213 212 218 238 237 229 237 257 269 269 265 259 253 247 241 237 234 231 228 225 221 219 219 218 219 221 223 225 227 230 236 241 249 258 266 277 286 293 297 301 305 309 311 314 315 316 317 319 318 315 314 314 314
288 289 147 148 219 190 167 157 192 243 176 165 153 132 142 169 5 284 270 278 273 271 272 145 147 255 270 257 221 222 233 226 218 223 221 224 237 240 240 250 261 267 267 265 261 256 251 246 243 240 234 229 226 222 219 218 218 219 220 222 224 226 230 235 241 248 256 266 276 284 290 295 299 304 308 311 312 314 316 317 318 317 315 315 315 315
243 287 196 177 193 174 183 200 172 139 152 180 154 141 158 152 178 234 235 254 276 290 292 227 178 231 264 273 211 215 234 230 224 229 231 237 245 248 250 254 259 263 263 264 262 258 256 252 247 243 237 232 227 222 219 218 218 219 220 221 223 225 230 234 240 247 255 265 274 281 287 293 298 303 306 309 311 313 315 317 316 315 315 315 316 316
218 266 228 185 157 164 178 192 139 117 137 196 124 126 181 177 174 213 213 197 233 317 289 233 218 231 235 280 243 228 250 237 230 233 233 241 246 246 250 253 257 260 260 262 261 260 257 251 246 243 238 232 227 222 219 218 218 219 220 221 222 225 230 234 240 247 255 263 271 278 286 292 297 301 304 307 310 312 314 316 315 314 315 316 315 315
192 271 253 81 252 189 174 163 146 142 165 164 156 174 203 178 138 140 258 55 74 280 273 254 259 273 284 279 234 214 224 229 235 232 225 236 241 239 246 251 253 255 256 258 260 261 257 250 246 243 238 233 228 223 220 218 218 219 220 221 222 224 228 233 240 246 253 260 268 276 283 290 295 299 304 307 310 312 315 315 313 314 315 315 316 316
183 268 249 163 219 233 144 106 79 17 122 132 195 207 165 107 94 108 244 356 30 245 271 293 273 276 282 279 245 160 192 225 234 230 229 240 240 237 243 247 249 250 250 254 258 257 254 250 248 244 239 235 231 226 222 219 217 218 220 223 223 225 228 232 238 244 251 258 266 275 281 288 294 299 305 307 310 313 314 314 313 314 315 316 316 317
170 247 259 164 129 341 64 90 85 2 63 128 197 203 111 142 157 111 170 222 246 236 272 283 277 274 261 252 260 230 208 216 227 225 230 239 234 233 240 243 245 245 245 249 253 253 251 251 250 246 239 234 230 226 222 218 216 217 220 222 222 224 227 231 237 242 250 257 265 273 280 287 294 300 304 307 310 313 313 313 314 315 316 317 318 318
150 216 253 21 351 357 53 195 187 195 37 70 140 50 61 166 173 167 168 181 207 214 260 278 281 276 251 205 222 230 209 202 210 214 219 229 227 226 234 241 241 239 242 247 250 250 250 251 250 246 239 234 228 223 218 215 215 217 219 220 220 222 225 230 235 241 248 256 264 272 280 288 295 300 304 308 312 313 313 314 315 316 317 319 319 319
100 212 234 349 340 276 190 210 199 185 170 157 175 177 206 186 126 206 234 126 146 188 239 260 269 272 260 162 188 209 194 195 198 200 211 221 225 229 235 240 237 235 242 247 248 249 251 251 249 243 236 231 226 219 215 214 215 217 219 220 220 222 224 229 234 239 247 256 264 273 282 290 297 301 306 311 313 313 314 315 316 318 319 320 320 319
148 200 214 194 255 237 227 223 206 193 177 175 189 187 193 181 128 208 250 219 156 185 206 199 251 269 264 133 172 190 175 197 198 196 210 216 223 234 240 236 233 236 243 246 248 251 251 249 246 240 233 227 221 216 213 213 216 218 219 218 219 221 224 229 234 238 247 256 264 275 284 291 298 303 308 312 313 313 314 315 317 319 319 320 320 319
122 131 209 231 237 236 252 290 307 243 162 157 213 193 180 177 155 190 228 226 175 205 213 123 258 268 260 135 155 183 171 197 199 193 209 223 227 236 238 232 233 240 244 245 248 250 250 248 244 237 230 224 219 215 213 214 216 217 218 217 218 221 224 228 233 238 246 256 265 276 286 293 300 306 311 314 314 314 315 317 319 320 321 321 321 320
105 121 202 250 269 296 15 18 342 337 94 139 246 190 171 204 199 204 221 188 171 210 197 102 253 264 267 132 147 197 184 195 200 200 215 228 231 236 234 231 236 241 243 245 247 248 247 244 239 234 229 223 217 214 213 214 216 216 216 217 217 220 223 226 232 239 247 256 267 278 288 296 303 310 314 315 314 315 316 318 321 322 322 322 321 321
169 177 172 220 276 284 297 318 346 339 262 208 235 183 192 219 213 220 352 107 235 220 170 151 246 256 263 106 127 202 200 208 216 215 225 232 233 236 236 237 241 243 244 246 246 246 245 241 239 236 230 222 216 214 213 215 216 216 215 216 217 219 222 226 232 239 248 258 269 280 290 298 306 312 314 314 315 316 318 321 323 324 324 323 322 322
173 185 175 193 235 239 245 248 222 202 211 217 229 185 198 212 203 199 222 219 234 217 147 182 244 254 266 279 269 249 213 228 242 222 227 239 243 246 248 248 248 246 246 247 247 246 245 242 240 235 228 221 216 214 214 214 215 215 214 214 216 218 221 226 233 240 249 259 269 282 292 301 309 312 314 315 316 318 321 323 324 325 324 323 322 323
160 204 195 208 226 228 244 253 211 131 153 208 216 201 204 213 205 201 228 232 225 168 169 226 241 255 274 280 274 264 244 253 270 254 242 248 253 257 260 259 255 251 249 249 248 246 243 241 239 234 226 220 215 214 214 214 214 213 213 213 214 217 220 226 232 240 249 260 271 284 295 304 311 314 315 316 317 320 323 325 325 325 325 324 323 323
113 233 215 221 230 230 245 254 227 146 194 213 201 212 219 214 201 203 229 231 200 146 235 240 242 257 270 270 269 269 267 270 276 274 269 268 266 265 266 264 257 251 249 247 245 244 243 241 238 232 225 218 215 214 213 213 214 213 213 213 214 216 220 224 231 240 250 261 274 287 299 307 312 314 315 316 320 323 325 326 326 326 325 324 324 323
147 234 229 229 238 240 250 256 235 172 224 227 198 221 232 220 200 207 231 233 210 212 242 250 251 254 259 260 262 268 275 275 274 277 279 276 272 269 267 263 255 251 249 246 245 246 244 242 237 230 224 218 214 213 212 212 213 211 210 211 212 215 218 224 231 239 251 263 277 291 302 310 313 314 316 318 322 325 326 327 326 326 325 325 324 323
156 235 241 241 254 255 254 257 242 195 243 254 238 241 247 238 217 214 234 239 229 231 246 259 264 262 259 259 262 273 282 283 283 285 283 277 272 270 268 262 255 253 251 248 250 251 246 243 237 230 223 218 215 213 212 212 211 209 209 210 211 214 217 223 230 239 252 265 280 294 304 311 313 314 317 321 325 326 327 328 326 325 325 324 324 323
186 225 240 250 271 263 257 263 256 222 239 255 260 259 255 250 239 232 241 245 244 249 251 253 261 262 258 260 268 280 283 285 285 280 277 275 273 271 270 267 259 255 253 253 254 252 246 239 233 227 223 219 217 214 213 213 210 208 209 209 210 213 216 222 229 238 252 267 283 297 307 311 312 315 320 324 327 328 329 327 325 325 325 325 324 323
197 219 238 255 267 259 259 268 261 230 237 252 256 256 255 255 251 245 245 241 240 252 255 249 249 251 256 265 273 271 273 275 271 268 268 270 270 268 269 270 264 257 256 257 254 248 242 236 231 228 225 221 217 215 214 212 209 207 208 208 208 211 214 221 229 240 255 270 286 299 307 309 312 317 323 326 328 329 328 325 324 324 324 324 324 323
184 208 232 234 245 255 257 255 220 152 221 249 245 248 253 257 255 254 257 250 233 238 250 251 248 252 261 269 266 260 259 255 257 261 263 266 269 270 269 267 264 262 262 261 255 248 244 240 236 233 228 222 218 216 215 211 208 207 207 206 207 209 214 221 229 242 258 274 291 302 306 308 314 321 326 328 329 328 326 323 324 324 323 324 324 325
195 215 232 226 234 250 247 217 131 158 232 245 236 218 239 250 255 258 263 257 242 232 239 249 257 263 266 265 263 264 262 260 262 265 266 267 270 271 270 268 265 266 266 262 256 252 249 243 238 233 227 223 220 216 212 208 206 206 204 203 206 209 213 221 230 244 261 279 294 302 304 310 318 324 328 329 328 326 324 322 323 324 323 325 326 328
212 215 225 223 235 248 192 136 178 220 230 248 272 244 242 247 254 262 262 255 246 240 242 249 257 262 263 264 265 263 262 265 270 271 271 270 267 266 267 268 267 266 265 262 257 254 249 240 233 228 223 220 218 213 208 204 202 202 201 202 205 208 214 222 232 248 266 282 294 299 304 313 323 327 328 329 326 324 323 322 323 323 323 327 329 330
220 219 222 223 230 239 149 191 225 241 264 303 293 268 254 238 232 254 261 255 248 244 244 247 253 258 262 266 265 262 263 268 273 276 276 272 264 262 263 264 267 266 265 265 261 256 251 243 237 232 225 220 215 208 204 201 200 199 199 200 204 207 215 223 234 251 270 284 292 299 308 318 326 328 328 326 323 322 322 321 323 324 325 328 330 331
219 221 223 223 220 221 225 225 238 276 300 290 272 262 249 219 216 236 254 260 257 250 244 239 248 256 258 260 263 264 267 275 279 278 279 274 264 263 264 265 269 269 268 269 266 260 255 247 239 232 224 218 211 204 201 200 199 198 198 200 204 207 214 224 236 255 274 285 291 302 313 322 327 327 326 323 321 321 321 321 324 326 327 330 331 333
215 218 216 222 217 214 234 241 240 252 252 247 252 253 236 189 201 207 222 259 262 255 244 231 241 251 252 254 261 264 269 280 276 272 278 278 272 267 268 270 271 269 265 264 258 249 243 236 229 226 221 214 206 200 199 198 197 197 198 200 203 207 214 224 239 258 275 285 294 307 318 323 326 325 322 321 319 320 322 323 325 328 330 332 333 334
215 216 217 230 228 214 233 239 228 233 233 234 248 253 214 159 170 155 166 258 258 253 243 227 233 243 244 247 251 240 187 259 259 262 272 278 279 273 273 273 271 265 258 254 250 243 236 229 223 219 216 209 201 196 195 196 195 196 198 199 203 208 213 225 243 262 276 287 299 312 320 324 324 322 319 319 320 321 323 325 327 330 333 334 334 334
212 209 216 228 227 224 231 233 231 242 240 238 250 252 168 145 137 90 305 258 257 248 228 215 222 231 232 236 237 202 175 226 247 264 270 276 278 272 271 271 265 258 252 247 241 235 232 227 220 214 209 204 198 194 193 193 193 195 197 199 202 207 213 227 246 265 277 290 304 314 321 324 321 318 316 318 321 322 323 326 329 332 334 336 336 336
204 204 213 218 222 225 227 232 241 243 235 245 247 197 135 129 117 139 239 249 255 221 196 201 212 222 223 218 202 196 219 233 245 259 267 271 272 267 262 262 257 252 250 246 238 231 226 223 220 216 206 199 195 193 191 192 192 193 196 198 201 205 214 229 249 266 278 294 308 315 321 321 316 315 316 317 321 323 325 328 331 333 336 338 338 337
182 193 212 212 221 226 222 232 245 234 223 235 210 155 147 147 211 227 237 252 258 226 195 203 212 218 215 205 198 214 233 242 245 252 259 263 266 261 254 253 249 242 238 234 229 226 219 213 210 207 199 193 193 192 192 191 191 193 194 196 199 204 214 230 250 267 281 297 309 315 319 317 312 313 316 317 321 324 327 330 333 334 337 339 339 338
174 181 207 197 207 222 222 227 235 233 216 204 175 147 164 205 233 235 243 260 262 254 233 219 223 226 217 206 211 222 233 240 241 244 252 258 260 256 253 252 249 245 241 233 225 221 215 208 203 198 193 190 190 191 191 190 191 192 192 193 197 203 214 231 248 268 284 296 307 314 314 311 309 311 314 317 321 324 328 332 334 336 338 341 341 341
173 185 211 197 193 206 222 217 216 237 219 188 173 185 208 213 227 238 243 251 256 256 250 233 234 235 224 214 221 226 229 233 236 239 244 250 251 250 248 247 244 240 236 231 225 219 212 206 199 193 190 189 188 189 189 189 190 190 190 192 196 201 215 233 247 267 283 292 304 310 307 304 304 308 314 318 321 325 331 334 335 338 341 342 343 344
186 196 221 227 204 204 227 228 214 236 228 195 192 214 221 217 224 235 239 241 248 253 251 240 237 238 229 223 227 228 229 234 237 239 243 247 248 246 243 242 241 237 231 224 218 212 208 204 198 191 188 187 186 186 186 187 189 190 189 191 196 203 218 234 248 264 275 287 299 302 300 298 300 307 315 319 322 327 333 335 337 341 342 344 347 348
205 211 225 235 226 223 236 238 214 224 230 212 210 222 229 227 226 232 238 242 245 248 250 246 244 244 237 230 229 229 233 238 240 242 245 246 243 240 237 234 231 227 222 216 209 204 201 199 195 190 187 185 184 184 185 184 185 188 190 191 196 207 221 233 247 258 264 276 289 292 290 290 298 309 316 320 324 329 334 337 340 343 344 346 350 351
217 220 228 234 232 233 235 226 215 224 229 225 223 227 233 237 236 234 237 241 243 247 250 250 250 251 245 237 233 234 238 241 241 242 244 243 240 237 232 229 225 221 220 216 210 204 197 194 193 190 186 184 182 182 184 183 183 186 190 193 199 209 220 230 241 248 253 265 277 280 280 282 294 309 315 321 327 330 335 340 342 345 346 348 350 351
215 210 221 233 231 233 239 230 227 235 236 233 232 230 231 238 241 240 240 242 245 250 252 251 251 251 248 245 243 242 243 244 242 243 244 243 241 236 230 227 225 220 216 213 208 203 197 193 191 189 186 185 183 182 183 184 184 185 189 195 202 209 217 225 231 235 244 257 269 274 276 280 293 307 314 324 330 333 337 340 344 350 351 350 352 354
273 204 218 245 240 239 250 247 245 254 251 245 243 240 237 240 243 244 246 247 249 253 256 254 253 251 249 249 249 247 245 245 246 246 245 243 240 236 231 228 225 220 214 209 205 202 198 193 190 188 187 186 184 183 183 183 183 186 190 198 204 207 213 219 221 225 234 249 263 270 274 281 297 310 317 328 337 341 342 341 345 353 356 355 356 358
284 254 246 265 253 244 245 238 237 247 253 250 249 247 245 246 246 247 249 250 249 251 252 252 252 252 251 251 251 248 245 246 249 247 244 242 242 240 235 228 221 216 212 207 202 199 195 192 190 188 187 186 185 183 183 183 185 188 193 199 202 205 210 214 214 218 225 240 257 266 271 283 302 314 321 332 345 353 356 352 348 349 352 356 358 357
241 242 238 247 250 249 245 237 236 241 247 250 252 253 253 252 248 246 247 248 248 249 250 250 250 251 251 251 251 248 245 248 250 247 242 242 243 241 237 229 222 216 209 203 199 194 190 189 189 188 188 186 184 183 184 185 187 191 195 199 200 202 207 208 209 214 220 233 252 261 269 284 305 318 324 336 347 353 2 9 3 353 351 353 353 351